• In Hungary
  • List of Countries
  • For 7 days
  • Water Temperature
  • Satellite Maps
  • Weather Map
  • News
  • Weather Widgets
  • user-avatar
    Login

    Hourly Weather Pabna

    Today, 18 November, Saturday

    Time Temperature Precipitation Wind Pressure Humidity
    00:00 +26°C° 0 mm 1 mps 756 mmHg 81%
    01:00 +26°C° 0 mm 1 mps 756 mmHg 82%
    02:00 +26°C° 0 mm 1 mps 756 mmHg 83%
    03:00 +25°C° 0 mm 1 mps 756 mmHg 83%
    04:00 +25°C° 0 mm 1 mps 756 mmHg 84%
    05:00 +25°C° 0 mm 1 mps 756 mmHg 85%
    06:00 +25°C° 0 mm 1 mps 756 mmHg 86%
    07:00 +26°C° 0 mm 1 mps 757 mmHg 81%
    08:00 +27°C° 0 mm 1 mps 757 mmHg 76%
    09:00 +29°C° 0 mm 1 mps 758 mmHg 71%
    10:00 +30°C° 0 mm 1 mps 757 mmHg 66%
    11:00 +31°C° 0 mm 1 mps 757 mmHg 61%
    12:00 +29°C° 0 mm 0 mps 757 mmHg 60%
    13:00 +32°C° 0 mm 1 mps 756 mmHg 58%
    14:00 +32°C° 0 mm 1 mps 756 mmHg 57%
    15:00 +32°C° 0 mm 2 mps 755 mmHg 56%
    16:00 +31°C° 0 mm 2 mps 755 mmHg 58%
    17:00 +31°C° 0 mm 1 mps 755 mmHg 60%
    18:00 +30°C° 0 mm 1 mps 755 mmHg 63%
    19:00 +29°C° 0 mm 1 mps 755 mmHg 64%
    20:00 +29°C° 0 mm 2 mps 756 mmHg 66%
    21:00 +28°C° 0 mm 2 mps 756 mmHg 67%
    22:00 +28°C° 0 mm 2 mps 756 mmHg 69%
    23:00 +28°C° 0 mm 2 mps 756 mmHg 70%

    Tomorrow, 19 November, Sunday

    Time Temperature Precipitation Wind Pressure Humidity
    00:00 +27°C° 0 mm 2 mps 756 mmHg 71%
    01:00 +27°C° 0 mm 2 mps 756 mmHg 73%
    02:00 +26°C° 0 mm 2 mps 756 mmHg 74%
    03:00 +26°C° 0 mm 2 mps 756 mmHg 76%
    04:00 +26°C° 0 mm 2 mps 756 mmHg 76%
    05:00 +25°C° 0 mm 2 mps 756 mmHg 77%
    06:00 +25°C° 0 mm 2 mps 756 mmHg 78%
    07:00 +26°C° 0 mm 2 mps 757 mmHg 72%
    08:00 +28°C° 0 mm 2 mps 757 mmHg 67%
    09:00 +29°C° 0 mm 2 mps 758 mmHg 61%
    10:00 +30°C° 0 mm 2 mps 758 mmHg 55%
    11:00 +31°C° 0 mm 3 mps 758 mmHg 50%
    12:00 +33°C° 0 mm 3 mps 757 mmHg 45%
    13:00 +34°C° 0 mm 3 mps 757 mmHg 44%
    14:00 +34°C° 0 mm 3 mps 756 mmHg 42%
    15:00 +34°C° 0 mm 3 mps 755 mmHg 41%
    16:00 +32°C° 0 mm 2 mps 755 mmHg 45%
    17:00 +31°C° 0 mm 2 mps 755 mmHg 48%
    18:00 +29°C° 0 mm 2 mps 755 mmHg 52%
    19:00 +29°C° 0 mm 2 mps 756 mmHg 53%
    20:00 +28°C° 0 mm 2 mps 756 mmHg 55%
    21:00 +27°C° 0 mm 2 mps 757 mmHg 57%
    22:00 +27°C° 0 mm 2 mps 757 mmHg 58%
    23:00 +26°C° 0 mm 2 mps 757 mmHg 59%

    Day after tomorrow, 20 November, Monday

    Time Temperature Precipitation Wind Pressure Humidity
    00:00 +26°C° 0 mm 2 mps 757 mmHg 61%
    01:00 +26°C° 0 mm 2 mps 756 mmHg 62%
    02:00 +25°C° 0 mm 1 mps 756 mmHg 63%
    03:00 +25°C° 0 mm 1 mps 756 mmHg 64%
    04:00 +25°C° 0 mm 1 mps 756 mmHg 65%
    05:00 +24°C° 0 mm 1 mps 756 mmHg 66%
    06:00 +24°C° 0 mm 1 mps 756 mmHg 67%
    07:00 +25°C° 0 mm 1 mps 757 mmHg 62%
    08:00 +27°C° 0 mm 1 mps 758 mmHg 57%
    09:00 +29°C° 0 mm 1 mps 759 mmHg 52%
    10:00 +30°C° 0 mm 2 mps 759 mmHg 47%
    11:00 +31°C° 0 mm 2 mps 758 mmHg 43%
    12:00 +33°C° 0 mm 3 mps 758 mmHg 38%
    13:00 +33°C° 0 mm 3 mps 757 mmHg 36%
    14:00 +34°C° 0 mm 4 mps 756 mmHg 34%
    15:00 +34°C° 0 mm 4 mps 755 mmHg 32%
    16:00 +31°C° 0 mm 3 mps 755 mmHg 36%
    17:00 +30°C° 0 mm 3 mps 755 mmHg 39%
    18:00 +28°C° 0 mm 3 mps 755 mmHg 43%
    19:00 +27°C° 0 mm 3 mps 756 mmHg 45%
    20:00 +27°C° 0 mm 3 mps 756 mmHg 47%
    21:00 +26°C° 0 mm 3 mps 757 mmHg 49%
    22:00 +26°C° 0 mm 2 mps 757 mmHg 50%
    23:00 +25°C° 0 mm 2 mps 757 mmHg 51%

    21 November, Tuesday

    Time Temperature Precipitation Wind Pressure Humidity
    00:00 +25°C° 0 mm 2 mps 757 mmHg 52%
    01:00 +24°C° 0 mm 2 mps 756 mmHg 54%
    02:00 +24°C° 0 mm 2 mps 756 mmHg 55%
    03:00 +23°C° 0 mm 2 mps 756 mmHg 56%
    04:00 +23°C° 0 mm 2 mps 756 mmHg 57%
    05:00 +22°C° 0 mm 3 mps 757 mmHg 58%
    06:00 +21°C° 0 mm 3 mps 757 mmHg 59%
    07:00 +24°C° 0 mm 3 mps 758 mmHg 53%
    08:00 +25°C° 0 mm 3 mps 759 mmHg 47%
    09:00 +27°C° 0 mm 4 mps 759 mmHg 41%
    10:00 +28°C° 0 mm 4 mps 759 mmHg 36%
    11:00 +30°C° 0 mm 4 mps 758 mmHg 30%
    12:00 +32°C° 0 mm 5 mps 758 mmHg 24%
    13:00 +32°C° 0 mm 5 mps 757 mmHg 23%
    14:00 +32°C° 0 mm 5 mps 756 mmHg 23%
    15:00 +32°C° 0 mm 4 mps 755 mmHg 22%
    16:00 +29°C° 0 mm 4 mps 755 mmHg 25%
    17:00 +27°C° 0 mm 3 mps 755 mmHg 28%
    18:00 +25°C° 0 mm 3 mps 755 mmHg 31%
    19:00 +24°C° 0 mm 3 mps 756 mmHg 32%
    20:00 +22°C° 0 mm 3 mps 757 mmHg 33%
    21:00 +23°C° 0 mm 2 mps 757 mmHg 34%
    22:00 +21°C° 0 mm 2 mps 757 mmHg 35%
    23:00 +21°C° 0 mm 2 mps 757 mmHg 36%

    22 November, Wednesday

    Time Temperature Precipitation Wind Pressure Humidity
    00:00 +20°C° 0 mm 2 mps 757 mmHg 37%
    01:00 +20°C° 0 mm 2 mps 757 mmHg 39%
    02:00 +19°C° 0 mm 2 mps 756 mmHg 40%
    03:00 +19°C° 0 mm 2 mps 756 mmHg 41%
    04:00 +18°C° 0 mm 2 mps 756 mmHg 42%
    05:00 +18°C° 0 mm 2 mps 757 mmHg 43%
    06:00 +18°C° 0 mm 2 mps 757 mmHg 44%
    07:00 +19°C° 0 mm 2 mps 757 mmHg 42%
    08:00 +21°C° 0 mm 3 mps 758 mmHg 40%
    09:00 +24°C° 0 mm 3 mps 759 mmHg 38%
    10:00 +25°C° 0 mm 3 mps 758 mmHg 37%
    11:00 +27°C° 0 mm 3 mps 757 mmHg 36%
    12:00 +28°C° 0 mm 3 mps 757 mmHg 36%
    13:00 +29°C° 0 mm 3 mps 756 mmHg 35%
    14:00 +29°C° 0 mm 3 mps 755 mmHg 35%
    15:00 +29°C° 0 mm 3 mps 755 mmHg 35%
    16:00 +28°C° 0 mm 3 mps 755 mmHg 39%
    17:00 +26°C° 0 mm 2 mps 755 mmHg 44%
    18:00 +25°C° 0 mm 2 mps 755 mmHg 48%
    19:00 +24°C° 0 mm 2 mps 755 mmHg 49%
    20:00 +24°C° 0 mm 3 mps 756 mmHg 50%
    21:00 +22°C° 0 mm 3 mps 757 mmHg 51%
    22:00 +22°C° 0 mm 3 mps 756 mmHg 51%
    23:00 +21°C° 0 mm 3 mps 756 mmHg 50%

    23 November, Thursday

    Time Temperature Precipitation Wind Pressure Humidity
    00:00 +21°C° 0 mm 3 mps 756 mmHg 50%
    01:00 +20°C° 0 mm 3 mps 756 mmHg 50%
    02:00 +20°C° 0 mm 3 mps 756 mmHg 50%
    03:00 +19°C° 0 mm 3 mps 756 mmHg 50%
    04:00 +19°C° 0 mm 3 mps 756 mmHg 51%
    05:00 +19°C° 0 mm 3 mps 756 mmHg 52%
    06:00 +18°C° 0 mm 2 mps 757 mmHg 52%
    07:00 +20°C° 0 mm 3 mps 757 mmHg 50%
    08:00 +21°C° 0 mm 3 mps 758 mmHg 47%
    09:00 +24°C° 0 mm 3 mps 759 mmHg 44%
    10:00 +26°C° 0 mm 3 mps 758 mmHg 43%
    11:00 +27°C° 0 mm 3 mps 758 mmHg 42%
    12:00 +28°C° 0 mm 3 mps 757 mmHg 40%
    13:00 +29°C° 0 mm 3 mps 757 mmHg 39%
    14:00 +29°C° 0 mm 3 mps 756 mmHg 37%
    15:00 +30°C° 0 mm 3 mps 755 mmHg 36%
    16:00 +28°C° 0 mm 2 mps 755 mmHg 40%
    17:00 +27°C° 0 mm 2 mps 755 mmHg 44%
    18:00 +25°C° 0 mm 2 mps 756 mmHg 49%
    19:00 +25°C° 0 mm 2 mps 756 mmHg 50%
    20:00 +24°C° 0 mm 2 mps 756 mmHg 52%
    21:00 +22°C° 0 mm 3 mps 757 mmHg 54%
    22:00 +22°C° 0 mm 3 mps 757 mmHg 56%
    23:00 +21°C° 0 mm 3 mps 757 mmHg 57%
    Show more